Location: Sigmaringen
(48.0900°N, 9.2120°E)
Time: 06:07:03
(UTC+01:00)

ISS - Pass Details

Date: 13 January 2018
Orbit: 402 x 407 km, 51.6° (Epoch: 20 January)

Event Time Altitude Azimuth Distance (km) Brightness Sun altitude
Exits shadow 05:34:01 29° 113° (ESE) 781 -1.8 -25.3°
Drops below altitude 10° 05:35:45 10° 113° (ESE) 1,463 -0.1 -25.0°
Sets 05:37:50 0° 114° (ESE) 2,322 1.2 -24.7°
